TimeEDT,TemperatureF,Dew PointF,Humidity,Sea Level PressureIn,VisibilityMPH,Wind Direction,Wind SpeedMPH,Gust SpeedMPH,PrecipitationIn,Events,Conditions,WindDirDegrees,DateUTC
12:53 AM,79.0,77.0,94,30.03,9.0,East,4.6,-,N/A,,Clear,90,2013-08-17 04:53:00
1:53 AM,78.1,77.0,96,30.03,8.0,ENE,4.6,-,N/A,,Clear,60,2013-08-17 05:53:00
2:53 AM,79.0,77.0,94,30.02,8.0,Calm,Calm,-,N/A,,Clear,0,2013-08-17 06:53:00
3:53 AM,78.1,77.0,96,30.01,7.0,East,4.6,-,N/A,,Clear,80,2013-08-17 07:53:00
4:53 AM,77.0,77.0,100,30.01,7.0,NE,3.5,-,N/A,,Clear,50,2013-08-17 08:53:00
5:53 AM,78.1,77.0,96,30.01,7.0,ESE,5.8,-,N/A,,Clear,110,2013-08-17 09:53:00
6:53 AM,78.1,78.1,100,30.01,7.0,East,5.8,-,N/A,,Clear,100,2013-08-17 10:53:00
7:53 AM,80.1,78.1,94,30.03,7.0,East,5.8,-,N/A,,Partly Cloudy,90,2013-08-17 11:53:00
8:53 AM,82.9,79.0,88,30.03,7.0,ESE,6.9,-,N/A,,Clear,110,2013-08-17 12:53:00
9:53 AM,84.9,79.0,82,30.04,8.0,East,11.5,-,N/A,,Scattered Clouds,100,2013-08-17 13:53:00
10:29 AM,86.0,78.8,79,30.05,8.0,ESE,10.4,-,N/A,,Mostly Cloudy,110,2013-08-17 14:29:00
10:53 AM,87.1,78.1,74,30.05,9.0,SSE,9.2,-,N/A,,Mostly Cloudy,150,2013-08-17 14:53:00
11:53 AM,90.0,77.0,65,30.05,9.0,SE,11.5,-,N/A,,Mostly Cloudy,130,2013-08-17 15:53:00
12:53 PM,91.0,73.9,57,30.03,9.0,SSE,13.8,-,N/A,,Scattered Clouds,160,2013-08-17 16:53:00
1:53 PM,91.9,73.0,54,30.01,10.0,SE,6.9,-,N/A,,Partly Cloudy,140,2013-08-17 17:53:00
2:53 PM,93.0,73.9,54,29.99,10.0,South,9.2,-,N/A,,Mostly Cloudy,170,2013-08-17 18:53:00
3:50 PM,87.8,75.2,66,29.99,9.0,SE,20.7,27.6,N/A,Thunderstorm,Thunderstorm,130,2013-08-17 19:50:00
3:53 PM,84.0,75.0,74,29.99,6.0,SE,21.9,29.9,N/A,Thunderstorm,Unknown,130,2013-08-17 19:53:00
3:56 PM,80.6,75.2,84,29.98,2.5,East,27.6,34.5,0.05,Rain-Thunderstorm,Heavy Thunderstorms and Rain,100,2013-08-17 19:56:00
4:04 PM,77.0,73.4,89,30.01,1.2,East,15.0,34.5,0.09,Rain-Thunderstorm,Heavy Thunderstorms and Rain,100,2013-08-17 20:04:00
4:08 PM,77.0,73.4,89,30.01,2.0,ENE,15.0,-,0.11,Rain-Thunderstorm,Thunderstorms and Rain,70,2013-08-17 20:08:00
4:12 PM,77.0,73.4,89,30.00,3.0,NE,9.2,-,0.11,Rain-Thunderstorm,Light Thunderstorms and Rain,50,2013-08-17 20:12:00
4:45 PM,78.8,73.4,83,30.01,7.0,SSE,6.9,-,0.12,Rain,Light Rain,160,2013-08-17 20:45:00
4:53 PM,77.0,73.9,90,29.99,6.0,SSW,5.8,-,0.12,Rain,Light Rain,200,2013-08-17 20:53:00
5:53 PM,81.0,77.0,88,29.99,10.0,ENE,3.5,-,0.00,,Clear,60,2013-08-17 21:53:00
6:53 PM,81.0,75.9,85,30.01,9.0,NNE,4.6,-,N/A,,Mostly Cloudy,30,2013-08-17 22:53:00
7:53 PM,82.0,75.9,82,30.02,10.0,NNE,3.5,-,N/A,,Partly Cloudy,30,2013-08-17 23:53:00
8:53 PM,81.0,77.0,88,30.04,10.0,Calm,Calm,-,N/A,,Clear,0,2013-08-18 00:53:00
9:53 PM,80.1,77.0,90,30.05,10.0,ENE,5.8,-,N/A,,Clear,60,2013-08-18 01:53:00
10:53 PM,79.0,75.9,90,30.06,9.0,NE,3.5,-,N/A,,Clear,40,2013-08-18 02:53:00
11:53 PM,79.0,75.9,90,30.07,9.0,Calm,Calm,-,N/A,,Clear,0,2013-08-18 03:53:00